NKS1 TJSJ-KMCO

Flight info

Callsign NKS1
Flight time 2h 34m
Altitude 34000
Route ACONY3 SAPPO Y280 OCTAL RIDES2
Aircraft A20N/M-SDE2E3FGHIRWXY/LB1

Departure

Time 2026-05-04 06:40
Airport Luis Munoz Marin International Airport (TJSJ)

Arrival

Time 2026-05-04 09:14
Airport Orlando International Airport (KMCO)
Time Latitude Longitude Altitude Speed Heading
2026-05-04 06:21 18.44052 -66.00480 19 ft 0 kts 158°
2026-05-04 06:31 18.44067 -66.00486 20 ft 4 kts 158°
2026-05-04 06:31 18.44092 -66.00494 19 ft 4 kts 176°
2026-05-04 06:31 18.44117 -66.00490 19 ft 4 kts 226°
2026-05-04 06:32 18.44124 -66.00478 21 ft 1 kts 257°
2026-05-04 06:34 18.44119 -66.00503 19 ft 5 kts 257°
2026-05-04 06:34 18.44103 -66.00551 19 ft 9 kts 247°
2026-05-04 06:34 18.44075 -66.00619 21 ft 12 kts 247°
2026-05-04 06:34 18.44040 -66.00708 19 ft 15 kts 247°
2026-05-04 06:35 18.43997 -66.00816 19 ft 18 kts 247°
2026-05-04 06:36 18.43834 -66.01358 17 ft 0 kts 332°
2026-05-04 06:40 18.44568 -65.99758 23 ft 153 kts 68°
2026-05-04 06:40 18.44982 -65.98718 539 ft 150 kts 62°
2026-05-04 06:40 18.45813 -65.98096 1030 ft 155 kts
2026-05-04 06:40 18.46885 -65.98269 1567 ft 159 kts 343°
2026-05-04 06:41 18.47935 -65.98701 1980 ft 170 kts 338°
2026-05-04 06:41 18.49079 -65.99246 2298 ft 190 kts 336°
2026-05-04 06:41 18.50328 -65.99897 2624 ft 211 kts 328°
2026-05-04 06:41 18.51487 -66.00978 3063 ft 234 kts 316°
2026-05-04 06:42 18.52702 -66.02256 3530 ft 259 kts 315°
2026-05-04 06:42 18.53999 -66.03680 4157 ft 277 kts 314°
2026-05-04 06:42 18.55334 -66.05183 5078 ft 283 kts 314°
2026-05-04 06:44 18.65264 -66.16451 10963 ft 320 kts 313°
2026-05-04 06:44 18.66833 -66.18233 11225 ft 342 kts 313°
2026-05-04 06:44 18.68498 -66.20125 11597 ft 358 kts 313°
2026-05-04 06:45 18.70199 -66.22059 12364 ft 360 kts 313°
2026-05-04 06:45 18.71901 -66.23995 13169 ft 361 kts 313°
2026-05-04 06:45 18.73618 -66.25946 13917 ft 364 kts 313°
2026-05-04 06:45 18.75350 -66.27916 14595 ft 368 kts 313°
2026-05-04 06:46 18.77103 -66.29911 15277 ft 372 kts 312°
2026-05-04 06:46 18.78866 -66.31917 15946 ft 375 kts 312°
2026-05-04 06:46 18.80643 -66.33941 16649 ft 376 kts 312°
2026-05-04 06:46 18.82423 -66.35969 17335 ft 377 kts 311°
2026-05-04 06:48 18.95423 -66.50466 21104 ft 403 kts 315°
2026-05-04 06:48 18.97462 -66.52527 21570 ft 407 kts 315°
2026-05-04 06:49 18.99513 -66.54605 22036 ft 410 kts 316°
2026-05-04 06:50 19.13577 -66.70441 24936 ft 434 kts 309°
2026-05-04 06:51 19.15500 -66.72910 25341 ft 436 kts 309°
2026-05-04 06:51 19.17433 -66.75393 25731 ft 438 kts 309°
2026-05-04 06:51 19.19378 -66.77890 26123 ft 441 kts 309°
2026-05-04 06:51 19.21329 -66.80399 26496 ft 443 kts 309°
2026-05-04 06:52 19.23294 -66.82926 26829 ft 446 kts 309°
2026-05-04 06:52 19.25269 -66.85469 27181 ft 448 kts 309°
2026-05-04 06:52 19.27254 -66.88024 27521 ft 450 kts 309°
2026-05-04 06:52 19.29247 -66.90592 27847 ft 453 kts 309°
2026-05-04 06:53 19.31248 -66.93170 28183 ft 454 kts 309°
2026-05-04 06:53 19.33233 -66.95729 28495 ft 456 kts 309°
2026-05-04 06:53 19.35257 -66.98339 28772 ft 459 kts 309°
2026-05-04 06:53 19.37284 -67.00955 29081 ft 461 kts 309°
2026-05-04 06:54 19.39323 -67.03588 29376 ft 462 kts 309°
2026-05-04 06:54 19.41367 -67.06228 29673 ft 464 kts 309°
2026-05-04 06:54 19.43418 -67.08878 29942 ft 467 kts 308°
2026-05-04 06:54 19.45483 -67.11546 30248 ft 468 kts 308°
2026-05-04 06:55 19.47554 -67.14224 30560 ft 470 kts 308°
2026-05-04 06:55 19.49627 -67.16905 30882 ft 471 kts 308°
2026-05-04 06:55 19.51708 -67.19597 31205 ft 472 kts 308°
2026-05-04 06:55 19.53783 -67.22285 31617 ft 470 kts 308°
2026-05-04 06:56 19.55849 -67.24961 32055 ft 468 kts 308°
2026-05-04 06:57 19.69958 -67.43270 34061 ft 451 kts 309°
2026-05-04 06:58 19.73933 -67.48439 34063 ft 451 kts 309°
2026-05-04 06:58 19.77894 -67.53595 34063 ft 450 kts 309°
2026-05-04 06:59 19.81856 -67.58757 34064 ft 451 kts 309°
2026-05-04 06:59 19.85794 -67.63890 34064 ft 451 kts 309°
2026-05-04 07:01 20.01703 -67.84676 34054 ft 457 kts 308°
2026-05-04 07:02 20.05712 -67.89926 34054 ft 457 kts 308°
2026-05-04 07:02 20.09692 -67.95142 34054 ft 457 kts 308°
2026-05-04 07:03 20.13699 -68.00399 34054 ft 457 kts 308°
2026-05-04 07:03 20.17703 -68.05655 34052 ft 457 kts 308°
2026-05-04 07:04 20.21705 -68.10916 34052 ft 457 kts 308°
2026-05-04 07:04 20.25703 -68.16173 34053 ft 457 kts 308°
2026-05-04 07:05 20.29700 -68.21437 34058 ft 457 kts 308°
2026-05-04 07:05 20.33692 -68.26698 34056 ft 457 kts 308°
2026-05-04 07:06 20.39683 -68.34600 34047 ft 457 kts 308°
2026-05-04 07:07 20.43001 -68.38980 34034 ft 457 kts 308°
2026-05-04 07:09 20.57436 -68.61101 34030 ft 454 kts 299°
2026-05-04 07:09 20.60577 -68.66938 34028 ft 453 kts 299°
2026-05-04 07:10 20.63709 -68.72776 34027 ft 453 kts 299°
2026-05-04 07:12 20.76071 -68.95841 34018 ft 448 kts 299°
2026-05-04 07:12 20.79162 -69.01623 34015 ft 448 kts 299°
2026-05-04 07:13 20.82254 -69.07413 34021 ft 448 kts 299°
2026-05-04 07:13 20.85343 -69.13207 34017 ft 448 kts 299°
2026-05-04 07:14 20.93054 -69.27697 34034 ft 448 kts 299°
2026-05-04 07:15 20.96132 -69.33494 34030 ft 448 kts 299°
2026-05-04 07:15 20.99207 -69.39290 34031 ft 447 kts 299°
2026-05-04 07:16 21.02273 -69.45075 34027 ft 447 kts 298°
2026-05-04 07:16 21.05317 -69.50826 34022 ft 447 kts 298°
2026-05-04 07:17 21.08382 -69.56620 34013 ft 447 kts 298°
2026-05-04 07:17 21.11444 -69.62416 34019 ft 447 kts 298°
2026-05-04 07:18 21.14502 -69.68212 34013 ft 447 kts 298°
2026-05-04 07:18 21.17559 -69.74010 34009 ft 447 kts 298°
2026-05-04 07:19 21.20613 -69.79809 34008 ft 447 kts 298°
2026-05-04 07:19 21.23668 -69.85617 34005 ft 447 kts 298°
2026-05-04 07:20 21.26723 -69.91430 34006 ft 447 kts 298°
2026-05-04 07:20 21.29771 -69.97237 34006 ft 447 kts 298°
2026-05-04 07:22 21.41956 -70.20511 34003 ft 447 kts 298°
2026-05-04 07:23 21.44994 -70.26331 34003 ft 447 kts 298°
2026-05-04 07:23 21.48034 -70.32156 34001 ft 447 kts 298°
2026-05-04 07:24 21.51066 -70.37976 34001 ft 447 kts 298°
2026-05-04 07:24 21.54081 -70.43770 33997 ft 447 kts 298°
2026-05-04 07:26 21.66190 -70.67101 33996 ft 446 kts 297°
2026-05-04 07:27 21.69208 -70.72931 33994 ft 446 kts 297°
2026-05-04 07:27 21.72227 -70.78769 34002 ft 446 kts 297°
2026-05-04 07:28 21.75248 -70.84619 34001 ft 446 kts 297°
2026-05-04 07:28 21.78262 -70.90461 33999 ft 446 kts 297°
2026-05-04 07:29 21.81255 -70.96268 34002 ft 447 kts 297°
2026-05-04 07:29 21.84265 -71.02116 34007 ft 446 kts 297°
2026-05-04 07:30 21.87275 -71.07968 34003 ft 446 kts 297°
2026-05-04 07:30 21.90280 -71.13818 34003 ft 446 kts 297°
2026-05-04 07:31 21.93280 -71.19664 34004 ft 446 kts 297°
2026-05-04 07:33 22.05232 -71.43024 34010 ft 444 kts 296°
2026-05-04 07:33 22.08204 -71.48849 34014 ft 443 kts 296°
2026-05-04 07:34 22.11154 -71.54638 34007 ft 443 kts 296°
2026-05-04 07:34 22.14119 -71.60462 34002 ft 442 kts 296°
2026-05-04 07:35 22.17082 -71.66289 33998 ft 442 kts 296°
2026-05-04 07:35 22.20041 -71.72113 34000 ft 442 kts 296°
2026-05-04 07:36 22.22996 -71.77938 34001 ft 442 kts 296°
2026-05-04 07:38 22.34791 -72.01248 34017 ft 443 kts 296°
2026-05-04 07:38 22.37740 -72.07094 34018 ft 443 kts 296°
2026-05-04 07:39 22.40686 -72.12940 34029 ft 443 kts 296°
2026-05-04 07:39 22.43632 -72.18793 34028 ft 443 kts 296°
2026-05-04 07:40 22.46574 -72.24640 34024 ft 442 kts 296°
2026-05-04 07:40 22.49492 -72.30449 34029 ft 442 kts 296°
2026-05-04 07:41 22.52411 -72.36271 34028 ft 441 kts 296°
2026-05-04 07:41 22.55355 -72.42145 34028 ft 441 kts 296°
2026-05-04 07:42 22.58270 -72.47972 34022 ft 440 kts 296°
2026-05-04 07:42 22.61181 -72.53791 34020 ft 439 kts 295°
2026-05-04 07:43 22.64081 -72.59600 34023 ft 438 kts 295°
2026-05-04 07:43 22.66977 -72.65408 34025 ft 438 kts 295°
2026-05-04 07:44 22.69867 -72.71206 34014 ft 437 kts 295°
2026-05-04 07:44 22.72751 -72.77002 34018 ft 436 kts 295°
2026-05-04 07:45 22.75627 -72.82788 34019 ft 436 kts 295°
2026-05-04 07:45 22.78498 -72.88567 34019 ft 435 kts 295°
2026-05-04 07:46 22.81362 -72.94344 34015 ft 435 kts 295°
2026-05-04 07:46 22.84220 -73.00112 34013 ft 434 kts 295°
2026-05-04 07:47 22.87075 -73.05884 34015 ft 434 kts 295°
2026-05-04 07:49 22.97961 -73.27943 34008 ft 432 kts 295°
2026-05-04 07:49 23.00797 -73.33708 34013 ft 432 kts 295°
2026-05-04 07:50 23.03627 -73.39464 34013 ft 432 kts 295°
2026-05-04 07:50 23.06440 -73.45190 33997 ft 433 kts 294°
2026-05-04 07:51 23.09265 -73.50954 34004 ft 433 kts 294°
2026-05-04 07:51 23.12096 -73.56737 34008 ft 433 kts 294°
2026-05-04 07:52 23.14930 -73.62528 34017 ft 434 kts 294°
2026-05-04 07:52 23.17766 -73.68330 34027 ft 435 kts 294°
2026-05-04 07:54 23.29087 -73.91562 34029 ft 434 kts 294°
2026-05-04 07:55 23.31908 -73.97370 34028 ft 434 kts 294°
2026-05-04 07:55 23.34728 -74.03183 34031 ft 434 kts 294°
2026-05-04 07:56 23.37526 -74.08956 34038 ft 433 kts 293°
2026-05-04 07:56 23.40334 -74.14757 34029 ft 433 kts 293°
2026-05-04 07:57 23.43151 -74.20583 34023 ft 432 kts 293°
2026-05-04 07:57 23.45926 -74.26329 34021 ft 431 kts 293°
2026-05-04 07:58 23.48730 -74.32140 34019 ft 430 kts 293°
2026-05-04 07:58 23.51513 -74.37917 34011 ft 429 kts 293°
2026-05-04 07:59 23.54285 -74.43679 34005 ft 429 kts 293°
2026-05-04 07:59 23.57039 -74.49410 34005 ft 429 kts 293°
2026-05-04 08:00 23.59802 -74.55167 34017 ft 425 kts 294°
2026-05-04 08:02 23.70732 -74.78001 34014 ft 425 kts 294°
2026-05-04 08:02 23.73463 -74.83722 34022 ft 425 kts 294°
2026-05-04 08:03 23.76197 -74.89457 34018 ft 425 kts 294°
2026-05-04 08:03 23.78922 -74.95182 34014 ft 425 kts 294°
2026-05-04 08:04 23.81649 -75.00917 34013 ft 425 kts 294°
2026-05-04 08:04 23.84373 -75.06653 34020 ft 425 kts 293°
2026-05-04 08:05 23.87095 -75.12390 34016 ft 425 kts 293°
2026-05-04 08:05 23.89822 -75.18146 34015 ft 426 kts 293°
2026-05-04 08:06 23.92560 -75.23932 34020 ft 426 kts 293°
2026-05-04 08:06 23.95279 -75.29683 34020 ft 426 kts 293°
2026-05-04 08:08 24.06111 -75.52667 34031 ft 425 kts 293°
2026-05-04 08:10 24.16991 -75.75881 34000 ft 438 kts 293°
2026-05-04 08:11 24.18386 -75.78860 33997 ft 441 kts 293°
2026-05-04 08:11 24.22591 -75.87863 33998 ft 447 kts 293°
2026-05-04 08:12 24.25430 -75.93947 33998 ft 448 kts 293°
2026-05-04 08:12 24.28263 -76.00027 33997 ft 448 kts 293°
2026-05-04 08:13 24.31094 -76.06116 34000 ft 448 kts 293°
2026-05-04 08:13 24.33922 -76.12203 33997 ft 448 kts 293°
2026-05-04 08:14 24.36764 -76.18330 33985 ft 448 kts 293°
2026-05-04 08:16 24.48066 -76.42774 34000 ft 448 kts 293°
2026-05-04 08:16 24.50878 -76.48876 33998 ft 448 kts 293°
2026-05-04 08:17 24.53689 -76.54984 33999 ft 449 kts 292°
2026-05-04 08:17 24.56504 -76.61108 33999 ft 449 kts 292°
2026-05-04 08:19 24.67717 -76.85584 33991 ft 449 kts 292°
2026-05-04 08:20 24.70513 -76.91704 33998 ft 444 kts 292°
2026-05-04 08:20 24.73259 -76.97724 34000 ft 437 kts 292°
2026-05-04 08:21 24.75969 -77.03679 33999 ft 433 kts 292°
2026-05-04 08:21 24.78647 -77.09567 34000 ft 427 kts 292°
2026-05-04 08:22 24.81285 -77.15376 34000 ft 422 kts 292°
2026-05-04 08:24 24.91703 -77.38395 33999 ft 421 kts 291°
2026-05-04 08:24 24.93871 -77.43199 33999 ft 421 kts 291°
2026-05-04 08:25 24.96483 -77.48989 33999 ft 421 kts 291°
2026-05-04 08:25 24.99089 -77.54774 33999 ft 421 kts 291°
2026-05-04 08:27 25.09483 -77.77935 33998 ft 421 kts 291°
2026-05-04 08:28 25.12058 -77.83690 34001 ft 421 kts 291°
2026-05-04 08:28 25.14645 -77.89482 34000 ft 420 kts 291°
2026-05-04 08:29 25.17228 -77.95269 34001 ft 420 kts 291°
2026-05-04 08:31 25.27536 -78.18441 33986 ft 420 kts 291°
2026-05-04 08:33 25.37764 -78.41561 33978 ft 418 kts 291°
2026-05-04 08:35 25.47948 -78.64697 33974 ft 418 kts 290°
2026-05-04 08:35 25.50487 -78.70484 33974 ft 418 kts 290°
2026-05-04 08:37 25.59364 -78.90778 33985 ft 418 kts 290°
2026-05-04 08:38 25.61878 -78.96542 33983 ft 418 kts 290°
2026-05-04 08:38 25.64408 -79.02350 33988 ft 418 kts 290°
2026-05-04 08:40 25.74486 -79.25564 33987 ft 417 kts 290°
2026-05-04 08:41 25.77000 -79.31376 33985 ft 417 kts 290°
2026-05-04 08:41 25.79504 -79.37172 33982 ft 416 kts 289°
2026-05-04 08:42 25.82003 -79.42965 33981 ft 416 kts 289°
2026-05-04 08:42 25.84492 -79.48739 33984 ft 415 kts 289°
2026-05-04 08:43 25.86979 -79.54519 33982 ft 415 kts 289°
2026-05-04 08:43 25.89482 -79.60344 33984 ft 414 kts 289°
2026-05-04 08:44 25.91963 -79.66119 33981 ft 414 kts 289°
2026-05-04 08:46 26.01861 -79.89239 33979 ft 413 kts 289°
2026-05-04 08:46 26.04341 -79.95049 33977 ft 413 kts 289°
2026-05-04 08:47 26.06800 -80.00817 33976 ft 413 kts 289°
2026-05-04 08:47 26.09261 -80.06600 33969 ft 413 kts 289°
2026-05-04 08:48 26.11718 -80.12379 33970 ft 413 kts 289°
2026-05-04 08:48 26.14545 -80.17988 33979 ft 424 kts 301°
2026-05-04 08:48 26.16614 -80.20374 33978 ft 436 kts 311°
2026-05-04 08:49 26.19135 -80.22344 33976 ft 448 kts 322°
2026-05-04 08:50 26.39220 -80.32700 33987 ft 454 kts 326°
2026-05-04 08:51 26.44961 -80.35652 33993 ft 454 kts 326°
2026-05-04 08:51 26.50670 -80.38591 33995 ft 454 kts 326°
2026-05-04 08:52 26.56413 -80.41550 33997 ft 454 kts 326°
2026-05-04 08:52 26.62147 -80.44507 33997 ft 454 kts 325°
2026-05-04 08:54 26.85065 -80.56361 33802 ft 453 kts 324°
2026-05-04 08:55 26.87890 -80.57826 33557 ft 453 kts 324°
2026-05-04 08:55 26.90749 -80.59310 33306 ft 453 kts 324°
2026-05-04 08:55 26.93608 -80.60795 33057 ft 454 kts 325°
2026-05-04 08:55 26.96478 -80.62288 32771 ft 455 kts 325°
2026-05-04 08:57 27.15662 -80.72273 28064 ft 443 kts 326°
2026-05-04 09:01 27.52133 -80.91376 19329 ft 386 kts 327°
2026-05-04 09:01 27.54557 -80.92651 18740 ft 382 kts 327°
2026-05-04 09:01 27.56952 -80.93911 18139 ft 379 kts 328°
2026-05-04 09:01 27.59332 -80.95164 17535 ft 375 kts 328°
2026-05-04 09:02 27.61686 -80.96403 16938 ft 372 kts 328°
2026-05-04 09:02 27.64031 -80.97640 16198 ft 373 kts 328°
2026-05-04 09:02 27.66371 -80.98876 15644 ft 368 kts 328°
2026-05-04 09:02 27.68675 -81.00090 15092 ft 364 kts 329°
2026-05-04 09:03 27.70959 -81.01295 14507 ft 361 kts 329°
2026-05-04 09:03 27.73224 -81.02490 13930 ft 358 kts 329°
2026-05-04 09:03 27.75462 -81.03672 13355 ft 354 kts 329°
2026-05-04 09:03 27.77689 -81.04847 12786 ft 351 kts 329°
2026-05-04 09:04 27.79898 -81.06015 12232 ft 348 kts 330°
2026-05-04 09:04 27.82080 -81.07170 11671 ft 345 kts 330°
2026-05-04 09:04 27.84240 -81.08313 11124 ft 342 kts 330°
2026-05-04 09:04 27.86363 -81.09438 10570 ft 339 kts 331°
2026-05-04 09:05 27.88477 -81.10557 10198 ft 330 kts 331°
2026-05-04 09:05 27.90512 -81.11633 10049 ft 315 kts 332°
2026-05-04 09:05 27.92455 -81.12660 9919 ft 301 kts 332°
2026-05-04 09:05 27.94322 -81.13647 9684 ft 292 kts 332°
2026-05-04 09:06 27.96148 -81.14617 9330 ft 287 kts 332°
2026-05-04 09:07 28.08599 -81.21235 6339 ft 278 kts 335°
2026-05-04 09:08 28.10347 -81.22165 5922 ft 277 kts 335°
2026-05-04 09:08 28.12090 -81.23093 5503 ft 276 kts 335°
2026-05-04 09:08 28.13828 -81.24017 5069 ft 275 kts 336°
2026-05-04 09:08 28.15556 -81.24937 4651 ft 275 kts 336°
2026-05-04 09:09 28.17282 -81.25856 4269 ft 273 kts 336°
2026-05-04 09:09 28.18956 -81.26747 4168 ft 260 kts 336°
2026-05-04 09:09 28.20562 -81.27595 4066 ft 248 kts 340°
2026-05-04 09:09 28.22177 -81.28073 3955 ft 234 kts 356°
2026-05-04 09:10 28.23764 -81.28119 3850 ft 223 kts
2026-05-04 09:10 28.25293 -81.28114 3744 ft 215 kts
2026-05-04 09:10 28.26770 -81.28121 3636 ft 215 kts
2026-05-04 09:10 28.28246 -81.28121 3538 ft 205 kts
2026-05-04 09:11 28.29593 -81.28099 3481 ft 178 kts
2026-05-04 09:11 28.30739 -81.28123 3364 ft 154 kts 356°
2026-05-04 09:11 28.31735 -81.28496 3046 ft 149 kts 340°
2026-05-04 09:11 28.32678 -81.28915 2712 ft 143 kts 349°
2026-05-04 09:12 28.33657 -81.29183 2241 ft 146 kts 353°
2026-05-04 09:12 28.34651 -81.29361 1825 ft 143 kts 354°
2026-05-04 09:14 28.40892 -81.29560 139 ft 120 kts 359°
2026-05-04 09:14 28.41661 -81.29570 104 ft 93 kts 359°
2026-05-04 09:14 28.41087 -81.29563 100 ft 0 kts 360°
2026-05-04 09:20 28.41092 -81.29563 101 ft 8 kts 360°
2026-05-04 09:20 28.41195 -81.29560 101 ft 15 kts
2026-05-04 09:21 28.41303 -81.29546 102 ft 15 kts
2026-05-04 09:21 28.41411 -81.29540 103 ft 15 kts 353°
2026-05-04 09:21 28.41486 -81.29589 104 ft 11 kts 304°
2026-05-04 09:21 28.41484 -81.29637 104 ft 4 kts 245°
2026-05-04 09:22 28.41514 -81.29691 104 ft 15 kts 358°
2026-05-04 09:22 28.41586 -81.29692 105 ft 15 kts 359°
2026-05-04 09:22 28.41695 -81.29693 103 ft 15 kts 359°
2026-05-04 09:22 28.41775 -81.29694 102 ft 15 kts 360°
2026-05-04 09:23 28.41856 -81.29695 102 ft 15 kts 359°
2026-05-04 09:23 28.41965 -81.29696 103 ft 15 kts 359°
2026-05-04 09:23 28.42073 -81.29697 102 ft 15 kts 359°
2026-05-04 09:23 28.42154 -81.29708 100 ft 13 kts 319°
2026-05-04 09:25 28.42274 -81.30384 101 ft 15 kts 267°
2026-05-04 09:25 28.42268 -81.30475 103 ft 15 kts 266°
2026-05-04 09:26 28.42260 -81.30597 104 ft 15 kts 265°
2026-05-04 09:26 28.42250 -81.30719 104 ft 15 kts 264°
2026-05-04 09:26 28.42239 -81.30842 102 ft 15 kts 265°
2026-05-04 09:26 28.42234 -81.30964 101 ft 15 kts 270°
2026-05-04 09:27 28.42236 -81.31055 100 ft 15 kts 274°
2026-05-04 09:27 28.42253 -81.31176 99 ft 15 kts 282°
2026-05-04 09:27 28.42267 -81.31275 100 ft 6 kts 273°
2026-05-04 09:27 28.42271 -81.31389 101 ft 15 kts 271°
2026-05-04 09:28 28.42272 -81.31511 101 ft 15 kts 269°
2026-05-04 09:28 28.42269 -81.31634 102 ft 15 kts 268°
2026-05-04 09:28 28.42265 -81.31757 105 ft 15 kts 268°
2026-05-04 09:28 28.42263 -81.31848 108 ft 15 kts 266°
2026-05-04 09:29 28.42264 -81.31945 108 ft 9 kts 283°
2026-05-04 09:29 28.42313 -81.32028 109 ft 3 kts 308°
2026-05-04 09:29 28.42368 -81.32117 110 ft 15 kts 303°
2026-05-04 09:29 28.42409 -81.32195 110 ft 15 kts 300°
2026-05-04 09:30 28.42460 -81.32295 107 ft 6 kts 300°
2026-05-04 09:30 28.42503 -81.32381 105 ft 15 kts 300°
2026-05-04 09:30 28.42557 -81.32486 105 ft 15 kts 300°
2026-05-04 09:30 28.42599 -81.32566 104 ft 15 kts 304°
2026-05-04 09:31 28.42651 -81.32670 101 ft 10 kts 279°
2026-05-04 09:31 28.42652 -81.32765 103 ft 15 kts 270°
2026-05-04 09:31 28.42651 -81.32868 103 ft 5 kts 269°
2026-05-04 09:31 28.42682 -81.32918 102 ft 9 kts 348°
2026-05-04 09:32 28.42770 -81.32921 104 ft 15 kts 359°
2026-05-04 09:32 28.42878 -81.32922 105 ft 15 kts 359°
2026-05-04 09:34 28.43550 -81.32929 108 ft 15 kts 359°
2026-05-04 09:34 28.43669 -81.32930 103 ft 15 kts 359°
2026-05-04 09:34 28.43766 -81.32982 102 ft 7 kts 272°
2026-05-04 09:34 28.43789 -81.33021 102 ft 7 kts 344°
2026-05-04 09:35 28.43832 -81.33025 102 ft 7 kts 358°
2026-05-04 09:35 28.43841 -81.33025 101 ft 1 kts 358°